SDGSAT-1

operational
NORAD ID: 49387 Int'l Des: 2021-100 Owner: CAS Country: CN
LEOCIRCULARRETROGRADESSO

About SDGSAT-1

Description loading...

Live Position

Loading 3D Globe...

Upcoming Passes

Altitude History

Altitude vs Time

uPlot chart will show altitude changes over time

Two-Line Element Set

1 49387U 21100A 25347.00755078 .00005693 00000-0 27072-3 0 9992
2 49387 97.2923 35.6498 0010556 226.3078 133.7284 15.19524208227641
Epoch: Dec 13, 2025 • Age: 7 hours

Current Status

Altitude 505.9 km
Velocity 7.61 km/s
Sub-Earth Point 13.68°N, 26.99°E
Launch Date Nov 5, 2021
Age 4.1 years
Type other

Technical Details

Classification Payload
Mass 500.00 kg
Dry Mass 500.00 kg
Total Mass 500.00 kg
Length 2.00 m
Diameter 1.00 m
Span 3.00 m
Shape Box+pan
Manufacturer IMICAS
Bus Type SDGSAT
Phase Status In Orbit
Owner/State CAS/CN

Large Constellations

Loading constellations...